Sigfox identifier Datetime Temperature Humidity SNR
003A55D2 2019-04-23 14:55:33 21.6 28 14.9
003A55D2 2019-04-23 14:24:27 21.5 28 14.8
003A55D2 2019-04-23 13:53:23 21.5 28 14.5
003A55D2 2019-04-23 13:22:20 21.4 28 14.1
003A55D2 2019-04-23 12:51:16 21.4 28 14.1
003A55D2 2019-04-23 12:20:13 21.4 28 13.7
003A55D2 2019-04-23 11:49:09 21.4 28 13.7
003A55D2 2019-04-23 11:18:07 21.4 28 13.9
003A55D2 2019-04-23 10:47:05 21.2 28 14.1
003A55D2 2019-04-23 10:16:03 21.2 28 13.9
003A55D2 2019-04-23 09:45:03 21.2 27 12.8
003A55D2 2019-04-23 09:14:00 21.2 27 12.1
003A55D2 2019-04-23 08:42:58 21.1 27 12.1
003A55D2 2019-04-23 08:11:55 21.1 27 12.4
003A55D2 2019-04-23 07:40:56 21 27 13.4
003A55D2 2019-04-23 07:09:49 21 27 14
003A55D2 2019-04-23 06:38:46 21.1 27 14
003A55D2 2019-04-23 06:07:44 21.1 27 14
003A55D2 2019-04-23 05:36:39 21 27 18.1
003A55D2 2019-04-23 05:05:36 21.1 27 18.1
003A55D2 2019-04-23 04:34:35 21.1 27 18.1
003A55D2 2019-04-23 04:03:29 21.1 27 18.3
003A55D2 2019-04-23 03:32:26 21.1 27 18.3
003A55D2 2019-04-23 03:01:24 21.2 27 18.3
003A55D2 2019-04-23 02:30:18 21.2 27 18.3
003A55D2 2019-04-23 01:59:15 21.1 27 18.3
003A55D2 2019-04-23 01:28:14 21.1 27 18.3
003A55D2 2019-04-23 00:57:12 21.2 27 18.4
003A55D2 2019-04-23 00:26:10 21.2 27 18.3
003A55D2 2019-04-22 23:55:08 21.2 27 18.4
003A55D2 2019-04-22 23:24:05 21.1 27 18.4
003A55D2 2019-04-22 22:53:02 21.1 27 18.4
003A55D2 2019-04-22 22:22:00 21 27 18.4
003A55D2 2019-04-22 21:50:56 21.1 27 18.4
003A55D2 2019-04-22 20:48:49 21 27 18.4
003A55D2 2019-04-22 20:17:47 21 27 18.3
003A55D2 2019-04-22 19:46:48 21 27 18.3
003A55D2 2019-04-22 19:15:42 21 27 18.2
003A55D2 2019-04-22 18:44:39 21 27 17.9
003A55D2 2019-04-22 18:13:37 21 27 17.8
003A55D2 2019-04-22 17:42:32 21 27 17.6
003A55D2 2019-04-22 17:11:29 21 27 17.6
003A55D2 2019-04-22 16:40:26 21 27 17.6
003A55D2 2019-04-22 16:09:22 21 27 12.6
003A55D2 2019-04-22 15:38:20 21 27 17.6
003A55D2 2019-04-22 15:07:18 21 27 19.9
003A55D2 2019-04-22 14:36:13 21.1 27 19.7
003A55D2 2019-04-22 14:05:10 21.1 27 19.7
003A55D2 2019-04-22 13:34:07 21.1 27 19.7
003A55D2 2019-04-22 13:03:04 21.2 26 19.7
003A55D2 2019-04-22 12:32:03 21.2 26 21.2
003A55D2 2019-04-22 12:00:57 21.2 26 21.2
003A55D2 2019-04-22 11:29:53 21.2 26 21.2
003A55D2 2019-04-22 10:58:50 21.2 26 21.3
003A55D2 2019-04-22 10:27:49 21.2 26 21.2
003A55D2 2019-04-22 09:56:45 21.2 26 21.2
003A55D2 2019-04-22 09:25:43 21.2 26 21.2
003A55D2 2019-04-22 08:54:39 21.2 26 21.2
003A55D2 2019-04-22 08:23:36 21.2 26 21.2
003A55D2 2019-04-22 07:52:35 21.2 26 21.2
003A55D2 2019-04-22 07:21:33 21.2 26 21.2
003A55D2 2019-04-22 06:50:26 21.2 26 21.3
003A55D2 2019-04-22 06:19:24 21.2 26 21.3
003A55D2 2019-04-22 05:48:21 21.2 26 21.3
003A55D2 2019-04-22 05:17:21 21.2 26 21.3
003A55D2 2019-04-22 04:46:18 21.2 26 21.3
003A55D2 2019-04-22 04:15:13 21.2 26 21.4
003A55D2 2019-04-22 03:44:10 21.2 26 21.4
003A55D2 2019-04-22 03:13:07 21.2 26 21.4
003A55D2 2019-04-22 02:42:03 21.2 26 19.9
003A55D2 2019-04-22 02:11:00 21.2 26 17.7
003A55D2 2019-04-22 01:39:56 21.3 26 17.9
003A55D2 2019-04-22 01:08:56 21.3 26 17.9
003A55D2 2019-04-22 00:37:51 21.3 26 17.8
003A55D2 2019-04-22 00:06:49 21.3 26 17.8
003A55D2 2019-04-21 23:35:49 21.4 26 13.2
003A55D2 2019-04-21 23:04:44 21.4 26 13.3
003A55D2 2019-04-21 22:33:42 21.4 26 13.2
003A55D2 2019-04-21 22:02:40 21.4 26 13.2
003A55D2 2019-04-21 21:31:36 21.4 26 13
003A55D2 2019-04-21 21:00:35 21.4 26 13.2
003A55D2 2019-04-21 20:29:30 21.4 26 13.1
003A55D2 2019-04-21 19:58:27 21.4 26 13
003A55D2 2019-04-21 19:27:24 21.3 26 13.1
003A55D2 2019-04-21 18:56:21 21.3 26 13
003A55D2 2019-04-21 18:25:19 21.2 26 13
003A55D2 2019-04-21 17:54:16 21.2 26 17.7
003A55D2 2019-04-21 17:23:14 21.2 26 17.7
003A55D2 2019-04-21 16:52:11 21.2 26 17.7
003A55D2 2019-04-21 16:21:08 21.2 26 17.6
003A55D2 2019-04-21 15:50:06 21.2 26 17.8
003A55D2 2019-04-21 15:19:04 21.2 26 17.7
003A55D2 2019-04-21 14:48:01 21.2 26 17.7
003A55D2 2019-04-21 14:16:58 21.1 26 17.7
003A55D2 2019-04-21 13:45:56 21 25 17.7
003A55D2 2019-04-21 13:14:57 21.1 25 17.7
003A55D2 2019-04-21 12:43:57 21 25 17.6
003A55D2 2019-04-21 12:12:52 21 25 17.6
003A55D2 2019-04-21 11:41:50 21 25 17.6
003A55D2 2019-04-21 11:10:50 21 25 17.6
003A55D2 2019-04-21 10:39:47 21 25 17.6
003A55D2 2019-04-21 10:08:44 21 25 17.5
003A55D2 2019-04-21 09:37:44 21 25 17.5
003A55D2 2019-04-21 09:06:38 21 25 17.5
003A55D2 2019-04-21 08:35:41 21 25 17.6
003A55D2 2019-04-21 08:04:34 21.1 25 17.6
003A55D2 2019-04-21 07:33:32 21 25 17.7
003A55D2 2019-04-21 07:02:30 21 25 17.9
003A55D2 2019-04-21 06:31:26 21.1 25 18
003A55D2 2019-04-21 06:00:25 21 25 18.2
003A55D2 2019-04-21 05:29:22 21.2 25 18.1
003A55D2 2019-04-21 04:58:16 21.2 25 14.1
003A55D2 2019-04-21 04:27:13 21.2 25 14.5
003A55D2 2019-04-21 03:56:12 21.2 25 14.5
003A55D2 2019-04-21 03:25:07 21.2 25 14.5
003A55D2 2019-04-21 02:54:04 21.2 25 14.3
003A55D2 2019-04-21 02:23:01 21.2 25 14.3
003A55D2 2019-04-21 01:51:58 21.2 25 15
003A55D2 2019-04-21 01:20:55 21.2 25 15.4
003A55D2 2019-04-21 00:49:55 21.2 25 15.7
003A55D2 2019-04-21 00:18:51 21.2 25 15.9
003A55D2 2019-04-20 23:47:50 21.2 25 16
003A55D2 2019-04-20 23:16:47 21.2 25 16.7
003A55D2 2019-04-20 22:45:45 21.2 25 16.8
003A55D2 2019-04-20 22:14:42 21.2 25 17.3
003A55D2 2019-04-20 21:43:39 21.2 25 17.3
003A55D2 2019-04-20 21:12:39 21.2 25 17.8
003A55D2 2019-04-20 20:41:33 21.2 24 18.1
003A55D2 2019-04-20 20:10:30 21.2 24 18.1
003A55D2 2019-04-20 19:39:29 21.2 24 18.1
003A55D2 2019-04-20 19:08:22 21.2 24 18
003A55D2 2019-04-20 18:37:21 21.2 24 17.9
003A55D2 2019-04-20 18:06:15 21.2 24 17.8
003A55D2 2019-04-20 17:35:11 21.2 24 18
003A55D2 2019-04-20 17:04:08 21.2 24 18.1
003A55D2 2019-04-20 16:33:04 21.2 24 18.1
003A55D2 2019-04-20 15:30:57 21.2 24 18.1
003A55D2 2019-04-20 14:59:55 21.2 24 18
003A55D2 2019-04-20 14:28:51 21.1 24 18.4
003A55D2 2019-04-20 13:57:48 21.1 24 18.4
003A55D2 2019-04-20 13:26:44 21.1 24 18.5
003A55D2 2019-04-20 12:55:42 21 24 18.6
003A55D2 2019-04-20 12:24:37 21 24 18.7
003A55D2 2019-04-20 11:53:35 21 24 18.6
003A55D2 2019-04-20 11:22:33 21 24 18.6
003A55D2 2019-04-20 10:51:30 21 24 18.6
003A55D2 2019-04-20 10:20:27 21 24 18.8
003A55D2 2019-04-20 09:49:25 21 24 18.4
003A55D2 2019-04-20 09:18:22 21 24 18.8
003A55D2 2019-04-20 08:47:18 21 24 18.7
003A55D2 2019-04-20 08:16:16 21 24 19
003A55D2 2019-04-20 07:45:12 21 23 18.9
003A55D2 2019-04-20 07:14:09 21 23 18.9
003A55D2 2019-04-20 06:43:07 21 23 19.2
003A55D2 2019-04-20 06:12:04 21 23 19.3
003A55D2 2019-04-20 05:41:02 21 23 19.5
003A55D2 2019-04-20 05:09:59 21 23 19.5
003A55D2 2019-04-20 04:38:56 21 23 21.1
003A55D2 2019-04-20 04:07:54 21 23 21
003A55D2 2019-04-20 03:36:52 21 23 20.8
003A55D2 2019-04-20 03:05:49 21 23 20.9
003A55D2 2019-04-20 02:34:47 21 23 20.9
003A55D2 2019-04-20 02:03:43 21 23 20.9
003A55D2 2019-04-20 01:32:39 21 23 20.8
003A55D2 2019-04-20 01:01:36 21 23 21.1
003A55D2 2019-04-20 00:30:32 21 23 21.2
003A55D2 2019-04-19 23:59:28 20.9 23 21.1
003A55D2 2019-04-19 23:28:26 20.9 23 21.1
003A55D2 2019-04-19 22:57:21 20.9 23 21.3
003A55D2 2019-04-19 22:26:17 20.9 23 21.4
003A55D2 2019-04-19 21:55:14 21 23 21.5
003A55D2 2019-04-19 21:24:11 21 23 21.3
003A55D2 2019-04-19 20:53:07 20.9 24 21.3
003A55D2 2019-04-19 20:22:04 20.9 24 21.2
003A55D2 2019-04-19 19:51:01 20.9 24 21.1
003A55D2 2019-04-19 19:19:56 20.8 24 20.9
003A55D2 2019-04-19 18:48:54 20.8 24 21
003A55D2 2019-04-19 18:17:52 20.7 24 20.9
003A55D2 2019-04-19 17:46:51 20.8 24 20.7
003A55D2 2019-04-19 17:15:50 20.8 24 20.8
003A55D2 2019-04-19 16:44:47 20.9 24 20.7
003A55D2 2019-04-19 16:13:46 20.8 24 20.7
003A55D2 2019-04-19 15:42:41 20.9 24 19.1
003A55D2 2019-04-19 15:11:38 20.9 24 19.2
003A55D2 2019-04-19 14:40:35 21 24 19.4
003A55D2 2019-04-19 14:09:32 20.9 24 19.8
003A55D2 2019-04-19 13:38:28 21 24 19.8
003A55D2 2019-04-19 13:07:25 21 24 19.9
003A55D2 2019-04-19 12:36:21 21 25 19.7
003A55D2 2019-04-19 12:05:19 21 25 19.3
003A55D2 2019-04-19 11:34:16 21 25 19
003A55D2 2019-04-19 11:03:12 21 25 19.2
003A55D2 2019-04-19 10:32:07 21 25 19
003A55D2 2019-04-19 10:01:03 21 25 18.9
003A55D2 2019-04-19 09:29:59 21.1 25 18.6
003A55D2 2019-04-19 08:58:55 21.2 25 18.5
003A55D2 2019-04-19 08:27:52 21.1 25 18.5
003A55D2 2019-04-19 07:56:48 21.2 25 18.5
003A55D2 2019-04-19 07:25:44 21.2 25 18.7
003A55D2 2019-04-19 06:54:41 21.2 25 18.7
003A55D2 2019-04-19 06:23:37 21.1 26 18.7
003A55D2 2019-04-19 05:52:34 21.2 26 18.4
003A55D2 2019-04-19 05:21:31 21.2 26 18.2
003A55D2 2019-04-19 04:50:28 21.2 26 18.2
003A55D2 2019-04-19 04:19:25 21.2 26 17.9
003A55D2 2019-04-19 03:48:22 21.2 26 18.2
003A55D2 2019-04-19 03:17:19 21.2 26 18.6
003A55D2 2019-04-19 02:46:16 21.2 26 20.4
003A55D2 2019-04-19 02:15:13 21.2 26 21.7
003A55D2 2019-04-19 01:44:09 21.2 26 22.6
003A55D2 2019-04-19 01:13:06 21.2 26 23.3
003A55D2 2019-04-19 00:42:04 21.2 26 23.4
003A55D2 2019-04-19 00:11:01 21.2 26 23.5
003A55D2 2019-04-18 23:39:58 21.2 26 23.7
003A55D2 2019-04-18 23:08:55 21.2 26 23.8
003A55D2 2019-04-18 22:37:51 21.2 26 23.9
003A55D2 2019-04-18 22:06:47 21.2 26 24
003A55D2 2019-04-18 21:35:44 21.2 26 24.6
003A55D2 2019-04-18 21:04:40 21.2 26 24.7
003A55D2 2019-04-18 20:33:35 21.2 26 24.8
003A55D2 2019-04-18 20:02:32 21.3 26 25.3
003A55D2 2019-04-18 19:31:28 21.3 26 25.4
003A55D2 2019-04-18 19:00:24 21.4 26 25.5
003A55D2 2019-04-18 18:29:20 21.4 26 25.6
003A55D2 2019-04-18 17:58:16 21.4 26 25.7
003A55D2 2019-04-18 17:27:11 21.4 26 25.7
003A55D2 2019-04-18 16:56:08 21.5 26 25.8
003A55D2 2019-04-18 16:25:04 21.6 26 25.9
003A55D2 2019-04-18 15:54:00 21.6 26 25.9
003A55D2 2019-04-18 15:22:56 21.6 26 26
003A55D2 2019-04-18 14:51:51 21.6 26 26
003A55D2 2019-04-18 14:20:47 21.8 26 26
003A55D2 2019-04-18 13:49:44 21.8 26 25.7
003A55D2 2019-04-18 13:18:39 22 26 25.2
003A55D2 2019-04-18 12:47:36 22.1 26 24.9
003A55D2 2019-04-18 12:16:33 22.3 25 24.5
003A55D2 2019-04-18 11:45:29 22.4 20 24.5
003A55D2 2019-04-18 11:14:27 22.2 21 24.5
003A55D2 2019-04-18 10:43:24 22.2 22 24.4
003A55D2 2019-04-18 10:12:22 22.2 22 24.4
003A55D2 2019-04-18 09:41:19 22.2 21 24.4
003A55D2 2019-04-18 09:10:17 22.2 21 24.5
003A55D2 2019-04-18 08:39:13 22.1 21 23.9
003A55D2 2019-04-18 08:08:10 22.2 21 23.9
003A55D2 2019-04-18 07:37:06 22.2 21 24
003A55D2 2019-04-18 07:06:03 22.2 21 23.4
003A55D2 2019-04-18 06:34:59 22.2 21 23.4
003A55D2 2019-04-18 06:03:56 22.2 21 23.4
003A55D2 2019-04-18 05:32:52 22.2 22 23.3
003A55D2 2019-04-18 05:01:47 22.2 22 23.2
003A55D2 2019-04-18 04:30:45 22.2 22 23.2
003A55D2 2019-04-18 03:59:41 22.2 22 23.2
003A55D2 2019-04-18 03:28:37 22.3 22 23.8
003A55D2 2019-04-18 02:57:33 22.3 22 24
003A55D2 2019-04-18 02:26:28 22.3 22 24
003A55D2 2019-04-18 01:55:25 22.3 22 24.2
003A55D2 2019-04-18 01:24:22 22.5 22 24.3
003A55D2 2019-04-18 00:53:19 22.4 22 24.3
003A55D2 2019-04-18 00:22:16 22.5 22 24.8
003A55D2 2019-04-17 23:51:14 22.5 22 24.8
003A55D2 2019-04-17 23:20:11 22.5 22 24.8
003A55D2 2019-04-17 22:49:08 22.5 22 24.7
003A55D2 2019-04-17 22:18:05 22.6 22 24.7
003A55D2 2019-04-17 21:47:01 22.7 22 24.7
003A55D2 2019-04-17 21:15:58 22.7 22 24.7
003A55D2 2019-04-17 20:44:55 22.7 22 24.7
003A55D2 2019-04-17 20:13:51 22.9 22 24.8
003A55D2 2019-04-17 19:42:48 22.9 22 24.8
003A55D2 2019-04-17 19:11:46 22.9 22 24.8
003A55D2 2019-04-17 18:40:43 22.9 21 24.8
003A55D2 2019-04-17 18:09:39 22.9 21 24.8
003A55D2 2019-04-17 17:38:37 23 21 24.9
003A55D2 2019-04-17 17:07:34 23.1 21 24.9
003A55D2 2019-04-17 16:36:32 23 21 25
003A55D2 2019-04-17 16:05:29 23.1 22 25.1
003A55D2 2019-04-17 15:34:26 23 22 25.2
003A55D2 2019-04-17 15:03:23 22.9 22 25.2
003A55D2 2019-04-17 14:32:19 22.9 23 24.8
003A55D2 2019-04-17 14:01:17 22.9 23 24.8
003A55D2 2019-04-17 13:30:14 22.7 23 24.8
003A55D2 2019-04-17 12:59:10 22.6 23 24.7
003A55D2 2019-04-17 12:28:07 22.5 22 24.7
003A55D2 2019-04-17 11:57:04 22.4 22 24.6
003A55D2 2019-04-17 11:26:00 22.2 22 24.1
003A55D2 2019-04-17 10:54:57 22.2 22 24.1
003A55D2 2019-04-17 10:23:52 22.2 21 24.1
003A55D2 2019-04-17 09:52:48 22.1 21 24.2
003A55D2 2019-04-17 09:21:43 22.1 21 24.1
003A55D2 2019-04-17 08:50:40 22.1 21 24.2
003A55D2 2019-04-17 08:19:36 22 20 24.2
003A55D2 2019-04-17 07:48:34 22.1 20 24.7
003A55D2 2019-04-17 07:17:31 22.1 19 24.5
003A55D2 2019-04-17 06:46:28 22 19 24.6
003A55D2 2019-04-17 06:15:25 22 19 24.6
003A55D2 2019-04-17 05:44:23 22 19 24.5
003A55D2 2019-04-17 05:13:21 22 19 24.5
003A55D2 2019-04-17 04:42:20 22.1 19 24.5
003A55D2 2019-04-17 04:11:17 22.2 19 24.9
003A55D2 2019-04-17 03:40:15 22.2 19 25.3
003A55D2 2019-04-17 03:09:13 22.2 20 25.2
003A55D2 2019-04-17 02:38:10 22.2 20 25.1
003A55D2 2019-04-17 02:07:06 22.2 20 25.5
003A55D2 2019-04-17 01:36:04 22.2 20 25.4
003A55D2 2019-04-17 01:04:59 22.2 20 25.4
003A55D2 2019-04-17 00:33:56 22.2 20 25.3
003A55D2 2019-04-17 00:02:51 22.2 20 25.3
003A55D2 2019-04-16 23:31:47 22.2 20 25.3
003A55D2 2019-04-16 23:00:44 22.3 20 25.3
003A55D2 2019-04-16 22:29:41 22.4 20 25.3
003A55D2 2019-04-16 21:58:38 22.5 19 25.3
003A55D2 2019-04-16 21:27:34 22.5 19 25.6
003A55D2 2019-04-16 20:56:30 22.5 19 25.6
003A55D2 2019-04-16 20:25:27 22.5 19 25.7
003A55D2 2019-04-16 19:54:24 22.5 19 25.7
003A55D2 2019-04-16 19:23:20 22.5 19 25.7
003A55D2 2019-04-16 18:52:16 22.5 19 25.3
003A55D2 2019-04-16 18:21:11 22.6 18 25.4
003A55D2 2019-04-16 17:50:07 22.7 18 25.4
003A55D2 2019-04-16 17:19:04 22.8 18 25.4
003A55D2 2019-04-16 16:48:01 22.9 18 25.5
003A55D2 2019-04-16 16:16:57 22.9 19 25.6
003A55D2 2019-04-16 15:45:53 22.9 18 25.6
003A55D2 2019-04-16 15:14:50 22.8 19 25.2
003A55D2 2019-04-16 14:43:47 22.7 19 25.2
003A55D2 2019-04-16 14:12:44 22.7 18 25.3
003A55D2 2019-04-16 13:41:40 22.6 18 25.3
003A55D2 2019-04-16 13:10:36 22.5 18 24.8
003A55D2 2019-04-16 12:39:32 22.5 18 24.8
003A55D2 2019-04-16 12:08:28 22.3 18 24.9
003A55D2 2019-04-16 11:37:24 22.2 18 24.9
003A55D2 2019-04-16 11:06:19 22.2 18 24.9
003A55D2 2019-04-16 10:35:16 22.1 18 24.9
003A55D2 2019-04-16 10:04:13 22.1 18 24.9
003A55D2 2019-04-16 09:33:09 22.1 18 25
003A55D2 2019-04-16 09:02:08 22.1 18 24.9
003A55D2 2019-04-16 08:31:04 22 18 24.5
003A55D2 2019-04-16 08:00:02 22 17 24.4
003A55D2 2019-04-16 07:28:58 22 17 24.5
003A55D2 2019-04-16 06:57:55 22 17 24.9
003A55D2 2019-04-16 06:26:51 22.1 17 25.3
003A55D2 2019-04-16 05:55:47 22 17 25.4
003A55D2 2019-04-16 05:24:44 22 17 25.3
003A55D2 2019-04-16 04:53:40 22 17 25.4
003A55D2 2019-04-16 04:22:37 22 17 25.4
003A55D2 2019-04-16 03:51:34 22 17 25.3
003A55D2 2019-04-16 03:20:31 22 17 25.2
003A55D2 2019-04-16 02:49:28 22.1 17 25.2
003A55D2 2019-04-16 02:18:26 22.1 17 25.1
003A55D2 2019-04-16 01:47:23 22.1 17 24.7
003A55D2 2019-04-16 01:16:21 22.1 17 24.7
003A55D2 2019-04-16 00:45:19 22.1 17 24.7
003A55D2 2019-04-16 00:14:16 22.2 17 24.7
003A55D2 2019-04-15 23:43:13 22.2 17 24.7
003A55D2 2019-04-15 23:12:10 22.2 17 24.7
003A55D2 2019-04-15 22:41:06 22.2 17 24.7
003A55D2 2019-04-15 22:10:03 22.2 17 24.6
003A55D2 2019-04-15 21:38:59 22.3 16 24.7
003A55D2 2019-04-15 21:07:55 22.5 16 24.7
003A55D2 2019-04-15 20:36:50 22.5 16 24.7
003A55D2 2019-04-15 20:05:46 22.5 16 24.8
003A55D2 2019-04-15 19:34:42 22.5 16 24.8
003A55D2 2019-04-15 19:03:38 22.5 15 24.9
003A55D2 2019-04-15 18:32:36 22.5 15 24.8
003A55D2 2019-04-15 18:01:32 22.7 15 24.4
003A55D2 2019-04-15 17:30:29 22.7 15 23.9
003A55D2 2019-04-15 16:59:26 22.8 15 24.4
003A55D2 2019-04-15 16:28:23 22.7 15 24.4
003A55D2 2019-04-15 15:57:22 22.8 15 24.3
003A55D2 2019-04-15 15:26:19 22.7 16 24.3
003A55D2 2019-04-15 14:55:16 22.7 16 24.3
003A55D2 2019-04-15 14:24:13 22.7 16 24.3
003A55D2 2019-04-15 13:53:10 22.6 16 24.8
003A55D2 2019-04-15 13:22:07 22.5 16 25.2
003A55D2 2019-04-15 12:51:04 22.5 16 25.2
003A55D2 2019-04-15 12:20:00 22.4 16 25.2
003A55D2 2019-04-15 11:48:56 22.3 16 25.3
003A55D2 2019-04-15 11:17:53 22.2 16 25.3
003A55D2 2019-04-15 10:46:51 22.1 16 25.7
003A55D2 2019-04-15 10:15:49 22 17 25.7
003A55D2 2019-04-15 09:44:47 22 17 25.7
003A55D2 2019-04-15 09:13:44 22 17 25.7
003A55D2 2019-04-15 08:42:42 21.9 17 25.7
003A55D2 2019-04-15 08:11:39 21.8 17 25.7
003A55D2 2019-04-15 07:40:37 21.8 17 25.7
003A55D2 2019-04-15 07:09:34 21.8 17 25.7
003A55D2 2019-04-15 06:38:32 21.8 17 25.7
003A55D2 2019-04-15 06:07:30 21.8 17 25.7
003A55D2 2019-04-15 05:36:28 21.8 17 25.7
003A55D2 2019-04-15 05:05:25 21.8 17 25.8
003A55D2 2019-04-15 04:34:22 21.8 17 25.7
003A55D2 2019-04-15 04:03:17 21.8 17 25.3
003A55D2 2019-04-15 03:32:13 21.8 17 25.3
003A55D2 2019-04-15 03:01:09 21.8 17 25.3
003A55D2 2019-04-15 02:30:05 21.8 17 25.3
003A55D2 2019-04-15 01:59:02 21.8 18 25.4
003A55D2 2019-04-15 01:27:59 21.8 18 25.5
003A55D2 2019-04-15 00:56:55 21.8 18 25
003A55D2 2019-04-15 00:25:51 21.8 18 24.6
003A55D2 2019-04-14 23:54:49 21.8 18 24.6
003A55D2 2019-04-14 23:23:45 21.8 18 24.6
003A55D2 2019-04-14 22:52:43 21.8 18 24.5
003A55D2 2019-04-14 22:21:40 21.8 17 24.5
003A55D2 2019-04-14 21:50:36 21.9 18 24
003A55D2 2019-04-14 21:19:33 22.1 18 24
003A55D2 2019-04-14 20:48:30 22 18 24
003A55D2 2019-04-14 20:17:26 22 18 24
003A55D2 2019-04-14 19:46:23 22 18 24.5
003A55D2 2019-04-14 19:15:18 22 18 24.5
003A55D2 2019-04-14 18:44:14 22 18 24.5
003A55D2 2019-04-14 18:13:10 21.9 18 24.9
003A55D2 2019-04-14 17:42:05 21.8 18 24.9
003A55D2 2019-04-14 17:11:01 21.8 18 25.3
003A55D2 2019-04-14 16:39:57 21.8 18 25.3
003A55D2 2019-04-14 16:08:52 21.8 18 25.2
003A55D2 2019-04-14 15:37:49 21.8 18 25.3
003A55D2 2019-04-14 15:06:46 21.8 18 25.3
003A55D2 2019-04-14 14:35:43 21.8 18 25.4
003A55D2 2019-04-14 14:04:40 21.8 18 25.3
003A55D2 2019-04-14 13:33:35 21.8 18 25.4
003A55D2 2019-04-14 13:02:31 21.9 18 25.3
003A55D2 2019-04-14 12:31:25 21.9 18 25.3
003A55D2 2019-04-14 12:00:21 21.9 19 25.3
003A55D2 2019-04-14 11:29:17 21.8 19 25.3
003A55D2 2019-04-14 10:58:12 21.8 19 25.3
003A55D2 2019-04-14 10:27:08 21.8 18 25.3
003A55D2 2019-04-14 09:56:03 21.8 18 25.3
003A55D2 2019-04-14 09:24:58 21.8 18 25.4
003A55D2 2019-04-14 08:53:54 21.8 18 25.4
003A55D2 2019-04-14 08:22:49 21.8 18 25.4
003A55D2 2019-04-14 07:51:45 21.8 18 25.4
003A55D2 2019-04-14 07:20:40 21.8 18 25.4
003A55D2 2019-04-14 06:49:34 21.8 18 25.4
003A55D2 2019-04-14 06:18:29 21.8 18 25.4
003A55D2 2019-04-14 05:47:24 21.8 18 25.4
003A55D2 2019-04-14 05:16:20 21.8 18 25
003A55D2 2019-04-14 04:45:16 21.8 18 25.1
003A55D2 2019-04-14 04:14:12 21.8 18 24.6
003A55D2 2019-04-14 03:43:08 21.8 18 24.5
003A55D2 2019-04-14 03:12:05 21.9 18 24.5
003A55D2 2019-04-14 02:41:01 21.9 18 24.5
003A55D2 2019-04-14 02:09:57 21.9 18 24.5
003A55D2 2019-04-14 01:38:52 22 18 24.5
003A55D2 2019-04-14 01:07:48 21.9 18 25
003A55D2 2019-04-14 00:36:45 22 18 25
003A55D2 2019-04-14 00:05:41 22 18 24.9
003A55D2 2019-04-13 23:34:39 22 18 24.9
003A55D2 2019-04-13 23:03:34 22 18 24.8
003A55D2 2019-04-13 22:32:31 22 18 24.9
003A55D2 2019-04-13 22:01:26 22.1 18 24.8
003A55D2 2019-04-13 21:30:22 22 18 24.9
003A55D2 2019-04-13 20:59:17 22 18 24.8
003A55D2 2019-04-13 20:28:11 22.1 18 24.8
003A55D2 2019-04-13 19:57:07 22.1 18 24.8
003A55D2 2019-04-13 19:26:01 22.2 18 24.8
003A55D2 2019-04-13 18:54:57 22.2 18 24.9
003A55D2 2019-04-13 18:23:51 22.2 18 24.8
003A55D2 2019-04-13 17:52:47 22.2 18 24.4
003A55D2 2019-04-13 17:21:43 22.2 18 24.4
003A55D2 2019-04-13 16:50:39 22.2 18 24.8
003A55D2 2019-04-13 16:19:34 22.2 18 24.7
003A55D2 2019-04-13 15:48:30 22.2 18 24.7
003A55D2 2019-04-13 15:17:26 22.2 18 24.7
003A55D2 2019-04-13 14:46:21 22.2 18 24.7
003A55D2 2019-04-13 14:15:16 22.3 18 24.8
003A55D2 2019-04-13 13:44:12 22.3 18 24.9
003A55D2 2019-04-13 13:13:07 22.3 18 24.8
003A55D2 2019-04-13 12:42:03 22.4 18 24.7
003A55D2 2019-04-13 12:10:58 22.4 18 24.1
003A55D2 2019-04-13 11:39:53 22.4 18 24
003A55D2 2019-04-13 11:08:49 22.2 18 24
003A55D2 2019-04-13 10:37:45 22.2 18 24.1
003A55D2 2019-04-13 10:06:40 22.3 18 24.6
003A55D2 2019-04-13 09:35:34 22.3 18 24.6
003A55D2 2019-04-13 09:04:30 22.2 18 24.7
003A55D2 2019-04-13 08:33:25 22.2 18 24.8
003A55D2 2019-04-13 08:02:20 22.2 18 24.9
003A55D2 2019-04-13 07:31:16 22.2 18 24.8
003A55D2 2019-04-13 07:00:11 22.2 18 24.7
003A55D2 2019-04-13 06:29:06 22.2 18 24.8
003A55D2 2019-04-13 05:58:01 22.2 18 24.7
003A55D2 2019-04-13 05:26:57 22.2 18 24.7
003A55D2 2019-04-13 04:55:51 22.2 18 24.7
003A55D2 2019-04-13 04:24:47 22.2 18 24.6
003A55D2 2019-04-13 03:53:42 22.3 18 24.1
003A55D2 2019-04-13 03:22:36 22.4 18 24.5
003A55D2 2019-04-13 02:51:31 22.4 18 25
003A55D2 2019-04-13 02:20:26 22.5 18 25
003A55D2 2019-04-13 01:49:22 22.5 18 24.9
003A55D2 2019-04-13 01:18:17 22.5 18 24.9
003A55D2 2019-04-13 00:47:13 22.5 18 24.9
003A55D2 2019-04-13 00:16:08 22.5 19 25
003A55D2 2019-04-12 23:45:03 22.5 19 25.1
003A55D2 2019-04-12 23:13:59 22.7 19 25.2
003A55D2 2019-04-12 22:42:54 22.7 19 25.3
003A55D2 2019-04-12 22:11:49 22.7 19 25.4
003A55D2 2019-04-12 21:40:43 22.7 19 25.5
003A55D2 2019-04-12 21:09:38 22.7 19 24.9
003A55D2 2019-04-12 20:38:32 22.7 19 25
003A55D2 2019-04-12 20:07:26 22.7 19 25
003A55D2 2019-04-12 19:36:20 22.9 19 24.9
003A55D2 2019-04-12 19:05:14 22.9 18 25
003A55D2 2019-04-12 18:34:09 22.9 17 25.1
003A55D2 2019-04-12 18:03:05 23.1 17 25.2
003A55D2 2019-04-12 17:31:59 23.1 18 25.4
003A55D2 2019-04-12 17:00:56 23.1 18 25.6
003A55D2 2019-04-12 16:29:51 23.1 19 25.8
003A55D2 2019-04-12 15:58:47 23 19 26.2
003A55D2 2019-04-12 15:27:42 22.9 19 26.8
003A55D2 2019-04-12 14:56:36 22.7 20 27.5
003A55D2 2019-04-12 14:25:31 22.5 20 26.3
003A55D2 2019-04-12 13:54:25 22 21 21.2
003A55D2 2019-04-12 13:23:21 21.3 23 14.8